OBJECT V, 66685

Orbit data source: Space-Track

You're viewing an Uncataloged Satellite

Recently launched and/or uncataloged satellites may have evolving metadata. Metadata may include but not limited to: Owner, Maufacturer, Bus, Motor, and Mission.

OBJECT V, 66685 is a satellite in SSO that was launched on Fri, 28 Nov 2025 UTC via an FALCON 9 launch vehicle from the Air Force Western Test Range (AFWTR). Unknown objects in Earth's orbit typically refer to objects detected orbiting the Earth but have not yet been identified or cataloged. These objects could be anything from previously untracked satellites, spent rocket stages, debris from satellite collisions, or even natural meteoroids temporarily captured by Earth's gravity.

Loading next visibility...
Identifier
66685, 2025-276V
Orbit
SSO
Country
Flag of TBDTBD
Related business
None
Manufacturer
Unknown
Mission
Operational Civil Technology
Bus & Motor
Unknown
Mass
Unknown
Launch date (UTC)
2025-11-28 (2 months ago)
Launch vehicle
FALCON 9
Launch site
Air Force Western Test Range (AFWTR)
Object type
Unknown
Shape & HBR
Box, 0.1 m
Radar Cross Section
0.080 m²

Expand to show TLE details & history
Last TLE update: 1 day ago

TLE from 1 day ago
0 OBJECT V
1 66685U 25276V   26034.14382753  .00016107  00000-0  77058-3 0  9996
2 66685  97.4358 110.0241 0006198 117.2676 242.9191 15.19042505 10070
Epoch: 2026-02-03T03:27Z
TLE epoch observation values (Epoch: 2026-02-03T03:27:06.698Z)
Latitude
0.00002°
Longitude
-75.0828°
Altitude
513.767 km
Speed
7.606 km/s
True Right ascension
07h 20m 05s
True Declination
0° 00' 00"
Sunlit
Object was in full shadow at epoch
Visualization orbit readout
Latitude
Unknown
Longitude
Unknown
Altitude
Unknown
Speed
Unknown
Apparent Right ascension
Unknown
Apparent Declination
Unknown
Sunlit
N/A
Visualization observer readout
Local Sidereal Time
05:36:08
Azimuth
Unknown
Elevation
Unknown
Doppler factor
Unknown
Orbital elements
Apogee altitude
509.968 km
Perigee altitude
501.435 km
Semi-major axis
6,883.838 km
Eccentricity
0.00062
Inclination
97.4358°
RAAN
110.0241°
Arg. of periapsis
117.2676°
True anomaly
242.85589°
Mean anomaly
242.9191°
Eccentric anomaly
242.88749°
Mean motion
3.80012 °/min
Orbital period
94.73 mins
BSTAR
0.00077058
Loading maneuver chart data...
Computing Atmospheric mass density...
Loading historical data...
Loading historical data...
Loading historical data...
Loading historical data...
Loading historical data...
Loading historical data...
Loading historical data...

Documentation

Showing up to 5 results
|